Content
SEND FEEDBACK

Daily
Averages
Monthly
Summary
United Kingdom

WINCHESTER, ENGLAND


Home > Europe > United Kingdom > England
Elevation: 297 feet     Latitude: 51 09N     Longitude: 001 34W

WEATHER
 
SELECT A DAY
Number of Records: 58,097;   Date Range: 10/20/98 - 7/9/14
 
SHARE

PRINT THIS DATA

[ ← Previous Day ]
WEATHER ALMANAC - FEBRUARY 22, 2013
[ Next Day → ]
[ °C ]   °F
Weather ElementAverageHighLow
Temperature32.7 °F35.6 °F (1:50 pm)32 °F (1:50 am)
Dewpoint24.2 °F33.8 °F (1:50 pm)19.4 °F (4:50 am)
Humidity69.3 %100 % (2:50 pm)48 % (11:50 am)
Barometer30.11 in30.15 in (8:50 am)30.09 in (2:50 am)
Wind Speed12.5 mph15 mph (11:50 am)
Weather ElementAverage
Visibility9.1 mi
Wind DirectionNE (42.9 °)

Weather ElementTotal
Precipitation---
Heating Degree Days31.2 (Base 65)
Averaged from 31 records on February 22, 2013
WEATHER CONDITIONS BREAKOUT
WIND DIRECTION BREAKOUT
WEATHER BY HOUR - FEBRUARY 22, 2013
[ °C ]   °F
Local TimeTemperatureDewpointHumidityBarometerVisibilityWind DirectionWind SpeedGust SpeedPrecipitationEventsConditions
1:50 AM32.0 °F21.2 °F64 %30.12 in6.2 miNE (50°)11.5 mphOvercast
2:50 AM32.0 °F20.0 °F50 %30.14 in17.0 miNE (50°)9.2 mphOvercast
2:50 AM32.0 °F21.2 °F64 %30.09 in6.2 miNE (50°)9.2 mphOvercast
3:50 AM32.0 °F21.2 °F64 %30.09 in6.2 miENE (60°)12.7 mphOvercast
4:50 AM32.0 °F19.4 °F60 %30.09 in6.2 miNE (50°)12.7 mphOvercast
5:50 AM32.0 °F20.0 °F49 %30.13 in19.0 miNE (50°)12.7 mphOvercast
5:50 AM32.0 °F19.4 °F60 %30.09 in6.2 miNE (50°)12.7 mphOvercast
6:50 AM32.0 °F19.4 °F60 %30.09 in6.2 miNE (50°)12.7 mphOvercast
7:50 AM32.0 °F30.2 °F93 %30.12 in6.2 miNE (50°)13.8 mphMostly Cloudy
8:50 AM32.0 °F28.0 °F78 %30.15 in19.0 miNE (50°)12.7 mphOvercast
8:50 AM32.0 °F28.4 °F87 %30.12 in6.2 miNE (50°)12.7 mphOvercast
9:50 AM32.0 °F21.2 °F64 %30.12 in6.2 miNE (50°)13.8 mphOvercast
10:50 AM33.8 °F19.4 °F56 %30.12 in6.2 miNE (40°)13.8 mphOvercast
11:50 AM34.0 °F22.0 °F48 %30.14 in17.0 miENE (60°)15.0 mphMostly Cloudy
11:50 AM33.8 °F21.2 °F60 %30.12 in6.2 miENE (60°)15.0 mphMostly Cloudy
12:50 PM33.8 °F26.6 °F75 %30.09 in6.2 miNE (40°)15.0 mphMostly Cloudy
1:50 PM35.6 °F33.8 °F93 %30.09 in6.2 miNE (50°)13.8 mphMostly Cloudy
2:50 PM34.0 °F33.0 °F96 %30.12 in19.0 miNE (50°)15.0 mphMostly Cloudy
2:50 PM33.8 °F33.8 °F100 %30.09 in6.2 miNE (50°)15.0 mphMostly Cloudy
3:50 PM33.8 °F33.8 °F100 %30.09 in6.2 miNE (50°)15.0 mphOvercast
4:50 PM33.8 °F32.0 °F93 %30.09 in6.2 miNE (40°)11.5 mphOvercast
5:50 PM33.0 °F21.0 °F48 %30.13 in18.0 miNE (40°)12.7 mphOvercast
5:50 PM33.8 °F21.2 °F60 %30.09 in6.2 miNE (40°)12.7 mphOvercast
6:50 PM32.0 °F19.4 °F60 %30.12 in6.2 miNE (40°)10.4 mphOvercast
7:50 PM32.0 °F21.2 °F64 %30.09 in6.2 miNNE (20°)10.4 mphOvercast
8:50 PM32.0 °F23.0 °F59 %30.14 in16.0 miNNE (30°)9.2 mphOvercast
8:50 PM32.0 °F23.0 °F69 %30.09 in6.2 miNNE (30°)9.2 mphOvercast
9:50 PM32.0 °F23.0 °F69 %30.09 in6.2 miNNE (20°)10.4 mphOvercast
10:50 PM32.0 °F23.0 °F69 %30.09 in6.2 miNNE (20°)12.7 mphMostly Cloudy
11:50 PM32.0 °F24.0 °F62 %30.13 in15.0 miNNE (20°)12.7 mphOvercast
11:50 PM32.0 °F24.8 °F75 %30.09 in6.2 miNNE (20°)12.7 mphOvercast
Hourly data recorded from EGVP, located miles away from Winchester, England







STORIES FROM OUR PARTNERS